Location: Alafon
(8.4500°N, 4.2333°E)
Time: 04:57:06
(UTC+00:00)

Tiros 1 despin weight - Visible Passes

Search period start: 31 July 2021 00:00
Search period end: 10 August 2021 00:00
Orbit: 593 x 642 km, 48.2° (Epoch: 30 July)

Date Brightness Start Highest point End Pass type
(mag) Time Alt. Az. Time Alt. Az. Time Alt. Az.
02 Aug ? 19:46:06 10° N 19:48:16 19° NNE 19:48:16 19° NNE visible
03 Aug ? 20:01:24 10° NNW 20:04:08 33° N 20:04:08 33° N visible
04 Aug ? 18:38:31 10° NNE 18:40:31 13° NE 18:42:31 10° ENE visible
04 Aug ? 20:17:37 10° NW 20:20:04 29° WNW 20:20:04 29° WNW visible
05 Aug ? 18:52:50 10° NNW 18:56:55 30° NE 18:59:03 21° E visible
05 Aug ? 20:34:53 10° W 20:36:07 15° W 20:36:07 15° W visible
06 Aug ? 19:08:33 10° NW 19:13:10 82° NE 19:15:10 33° SE visible
07 Aug ? 19:25:07 10° WNW 19:29:21 36° SW 19:31:24 24° S visible
08 Aug ? 19:43:07 10° W 19:45:30 14° SW 19:47:41 11° SSW visible
09 Aug ? 18:15:49 10° NW 18:20:25 67° SW 18:24:57 10° SSE visible
